Weather History for KITH - December, 2012

Change the Weather History Date:

Friday, December 7, 2012

  Actual Average Record
Temperature  
Mean Temperature 34 °F -  
Max Temperature 36 °F 40 °F 64 °F (1998)
Min Temperature 31 °F 24 °F -2 °F (1969)
Degree Days  
Heating Degree Days 32    
Moisture  
Dew Point 28 °F    
Average Humidity 82    
Maximum Humidity 97    
Minimum Humidity 59    
Precipitation  
Precipitation 0.27 in - - ()
Sea Level Pressure  
Sea Level Pressure 30.06 in    
Wind  
Wind Speed 11 mph (SSE)    
Max Wind Speed 16 mph    
Max Gust Speed 24 mph    
Visibility 9 miles    
Events Rain    
Averages and records for this station are not official NWS values.
T = Trace of Precipitation, MM = Missing Value Source: NWS Daily Summary

Daily Weather History Graph

Daily Weather History Graph

Search for Another Location

Airport or City:

Trip Planner

Search our weather history database for the weather conditions in past years. The results will help you decide how hot, cold, wet, or windy it might be!

Date:

Astronomy

Dec. 07, 2012 Rise Set
Actual Time 7:22 AM EST 4:32 PM EST
Civil Twilight 6:50 AM EST 5:04 PM EST
Nautical Twilight 6:15 AM EST 5:39 PM EST
Astronomical Twilight 5:41 AM EST 6:13 PM EST
Moon 12:32 AM EST (12/7) 12:34 PM EST (12/7)
Length of Visible Light 10h 14m
Length of Day
9h 10m
Last Quarter, 39% of the Moon is Illuminated
Dec 7
Last Quarter
Dec 13
New
Dec 20
First Quarter
Dec 28
Full
Jan 4
Last Quarter

Hourly Weather History & Observations

Time (EST) Temp. Windchill Dew Point Humidity Pressure Visibility Wind Dir Wind Speed Gust Speed Precip Events Conditions
12:56 AM 32.0 °F 22.1 °F 19.0 °F 59% 30.13 in 10.0 mi South 13.8 mph - N/A   Clear
1:56 AM 32.0 °F 21.2 °F 19.0 °F 59% 30.12 in 10.0 mi South 16.1 mph 24.2 mph N/A   Clear
2:56 AM 31.1 °F 21.4 °F 20.1 °F 64% 30.11 in 10.0 mi SSE 12.7 mph 19.6 mph N/A   Clear
3:56 AM 31.1 °F 23.7 °F 20.1 °F 64% 30.09 in 10.0 mi SSE 8.1 mph 18.4 mph N/A   Clear
4:56 AM 31.1 °F 22.4 °F 20.1 °F 64% 30.10 in 10.0 mi South 10.4 mph - N/A   Scattered Clouds
5:56 AM 32.0 °F 23.0 °F 21.0 °F 64% 30.10 in 10.0 mi South 11.5 mph - N/A   Overcast
6:31 AM 33.8 °F 25.8 °F 21.2 °F 60% 30.06 in 10.0 mi SSE 10.4 mph - N/A   Overcast
6:56 AM 32.9 °F 25.3 °F 22.1 °F 65% 30.09 in 10.0 mi SSE 9.2 mph - N/A   Mostly Cloudy
7:56 AM 34.0 °F 25.0 °F 23.0 °F 64% 30.09 in 10.0 mi South 12.7 mph 18.4 mph N/A   Mostly Cloudy
8:56 AM 34.9 °F 26.6 °F 24.1 °F 65% 30.08 in 10.0 mi SSE 11.5 mph - N/A   Mostly Cloudy
9:56 AM 32.9 °F 22.4 °F 28.0 °F 82% 30.09 in 10.0 mi SSE 16.1 mph - 0.00 in Rain Light Rain
10:56 AM 32.9 °F 24.7 °F 31.1 °F 93% 30.08 in 4.0 mi SSE 10.4 mph - 0.00 in Rain Light Rain
11:56 AM 34.0 °F 25.0 °F 32.0 °F 92% 30.04 in 5.0 mi SE 12.7 mph - 0.03 in Rain Light Rain
12:56 PM 34.0 °F 28.0 °F 32.0 °F 92% 30.04 in 5.0 mi South 6.9 mph - 0.02 in Rain Light Rain
1:56 PM 34.9 °F 28.3 °F 32.9 °F 92% 30.03 in 6.0 mi South 8.1 mph - 0.04 in Rain Light Rain
2:56 PM 34.0 °F 29.8 °F 32.9 °F 96% 30.02 in 3.0 mi SE 4.6 mph - 0.11 in Rain Light Rain
3:56 PM 34.9 °F 29.0 °F 34.0 °F 97% 30.03 in 6.0 mi SSE 6.9 mph - 0.07 in Rain Light Rain
4:56 PM 34.9 °F 28.3 °F 34.0 °F 97% 30.03 in 7.0 mi SSE 8.1 mph - 0.00 in Rain Light Rain
5:56 PM 34.9 °F 30.8 °F 34.0 °F 97% 30.03 in 10.0 mi SSE 4.6 mph - 0.00 in Rain Light Rain
6:56 PM 34.9 °F 29.0 °F 34.0 °F 97% 30.04 in 10.0 mi SE 6.9 mph - 0.00 in Rain Light Rain
7:56 PM 36.0 °F 30.3 °F 34.0 °F 93% 30.03 in 10.0 mi SE 6.9 mph - 0.00 in Rain Light Rain
8:56 PM 36.0 °F 30.3 °F 34.0 °F 93% 30.03 in 10.0 mi SSE 6.9 mph - 0.00 in   Overcast
9:56 PM 36.0 °F 33.3 °F 34.0 °F 93% 30.02 in 10.0 mi SE 3.5 mph - N/A   Mostly Cloudy
10:03 PM 35.6 °F 32.8 °F 33.8 °F 93% 29.99 in 10.0 mi SE 3.5 mph - 0.00 in Rain Light Rain
10:56 PM 36.0 °F 33.3 °F 34.0 °F 93% 30.01 in 10.0 mi ESE 3.5 mph - 0.00 in Rain Light Rain
11:56 PM 36.0 °F 33.3 °F 34.9 °F 96% 30.00 in 10.0 mi SE 3.5 mph - 0.00 in Rain Light Rain